Find Starlink 11264

NORAD ID: 60906 Int'l Des: 2024-154 Owner: SPXS Country: US Constellation: starlink operational
LEOCIRCULAR

当前视图

正在加载3D地球...

About Starlink 11264

Starlink 11264 (NORAD 60906) is a starlink constellation satellite (v2 mini d2c) launched Aug 31, 2024 by SPXS of US. It operates in LEO, CIRCULAR orbit with a mass of 960.00 kg.

关于 Starlink 11264

正在加载描述...

即将过境

Passes for default location (London). Set your location on the main map for personalized predictions.

高度历史

Loading altitude history...

两行轨道根数

1 60906U 24154D 26171.46911360 -.00000360 00000-0 18983-5 0 9998
2 60906 53.1567 344.8474 0001865 152.6038 207.5079 15.69703500104651
Epoch: Jun 20, 2026 • Age: 23 hours

当前状态

高度 361.3 km
速度 7.69 km/s
星下点 4.31°N, 79.31°W
发射日期 Aug 31, 2024
运行时间 1.8 years
类型 internet

技术详情

分类 Payload
质量 960.00 kg
干质量 910.00 kg
总质量 960.00 kg
长度 0.30 m
直径 4.10 m
跨度 29.00 m
形状 Box + pan
制造商 SPXS
平台类型 Starlink V2MD
阶段状态 In Orbit
所有者/国家 SPXS/US

Most Searched